Regional Weather Roundup
Issued by NWS Sterling, VA

Home | Current Version | Previous Version | Text Only | Print | Product List | Glossary On
Versions: 1 2 3 4 5 6 7 8 9 10 11 12 13 14 15 16 17 18 19 20 21 22 23 24 25 26 27 28 29 30 31 32 33 34 35 36 37 38 39 40 41 42 43 44 45 46 47 48 49 50
000
ASUS41 KLWX 252310
RWRLWX

REGIONAL WEATHER ROUNDUP
NATIONAL WEATHER SERVICE BALTIMORE MD/WASHINGTON DC
700 PM EDT MON MAY 25 2015

Note: "FAIR" indicates few or no clouds below 12,000 feet
with no significant weather and/or obstructions to visibility.
 TC=TEMPERATURE CELSIUS

 * =Non NWS site. Station does not report precipitation (e.g. rain,
    snow, etc.), thunder, or fog.

DCZ001-MDZ009-015-VAZ040>042-051-053>054-260000-
WASHINGTON METRO

CITY           SKY/WX    TMP DP  RH WIND       PRES   REMARKS
WASHINGTON NAT PTSUNNY   83  58  42 S15G21    30.19F
DULLES         MOSUNNY   80  57  45 S14       30.19S
ANDREWS AFB    SUNNY     80  59  48 S12G17    30.19F
FT BELVOIR     SUNNY     81  58  45 SE6       30.19F
QUANTICO       SUNNY     81  61  50 S10       30.20F
COLLEGE PARK*  SUNNY     82  55  39 S8        30.19S
LEESBURG*      SUNNY     82  61  47 S15G23    30.19S
MANASSAS*      SUNNY     82  57  42 S12G17    30.19S
GAITHERSBURG*  SUNNY     81  57  44 S9        30.23S

$$

MDZ006>007-011-014-260000-
BALTIMORE METRO

CITY           SKY/WX    TMP DP  RH WIND       PRES   REMARKS
BWI AIRPORT    MOSUNNY   81  58  45 S5G16     30.18F
MD SCIENCE CTR   N/A     79  60  52 MISG      30.19S
MARTIN STATE   SUNNY     79  64  61 S18G24    30.21S
ANNAPOLIS      SUNNY     74  61  63 S16G24    30.21S
FORT MEADE*    SUNNY     79  55  44 S8        30.21S

$$

MDZ012-015-019>023-260000-
MARYLAND EASTERN SHORE

CITY           SKY/WX    TMP DP  RH WIND       PRES   REMARKS
OCEAN CITY     MOSUNNY   69  58  67 SW9G20    30.28F
SALISBURY      MOSUNNY   75  53  46 S12G24    30.26S
BAY BRIDGE AP*   N/A    N/A N/A N/A S13       30.21F
CAMBRIDGE*     SUNNY     79  57  47 S12G20    30.23F
EASTON*        MOSUNNY   81  63  54 S15       30.26S

$$

MDZ017>025-260000-
SOUTHERN MARYLAND

CITY           SKY/WX    TMP DP  RH WIND       PRES   REMARKS
PATUXENT RIVER SUNNY     77  60  55 S12G21    30.22F
ST INIGOES     SUNNY     75  60  59 SE14G21   30.22S
LEONARDTOWN*   SUNNY     75  59  57 SE9       30.24S

$$

MDZ003>005-260000-
NORTH CENTRAL MARYLAND

CITY           SKY/WX    TMP DP  RH WIND       PRES   REMARKS
FREDERICK*     SUNNY     82  61  47 S12       30.19F
HAGERSTOWN APT SUNNY     83  58  42 S13G22    30.15S
WESTMINSTER*   SUNNY     82  57  42 S9G17     30.19S

$$

MDZ501>502-260000-
WESTERN MARYLAND

CITY           SKY/WX    TMP DP  RH WIND       PRES   REMARKS
OAKLAND*       SUNNY     75  52  43 W5        30.25S
CUMBERLAND*    SUNNY     86  55  35 SE8       30.16S

$$

VAZ025>031-260000-
SHENANDOAH VALLEY

CITY           SKY/WX    TMP DP  RH WIND       PRES   REMARKS
WINCHESTER*    SUNNY     82  52  34 S10       30.17S
FRONT ROYAL*   FAIR      79  61  53 S6        30.16S
LURAY*         FAIR      82  61  47 S9        30.19R
NEW MARKET*    FAIR      81  59  48 S8G16     30.17R
STAUNTON*      SUNNY     79  56  44 S8        30.23S
WAYNESBORO*    FAIR      77  56  48 S10       30.24R

$$

WVZ021-048>050-054>055-260000-
EASTERN WEST VIRGINIA PANHANDLE

CITY           SKY/WX    TMP DP  RH WIND       PRES   REMARKS
MARTINSBURG    SUNNY     80  60  50 S10       30.16S
PETERSBURG*    SUNNY     80  56  44 SE7       30.15R

$$

VAZ036>039-050-260000-
CENTRAL FOOTHILLS

CITY           SKY/WX    TMP DP  RH WIND       PRES   REMARKS
CHARLOTTESVILL SUNNY     80  54  40 SW12      30.20S
CULPEPER*      SUNNY     80  57  44 SW6       30.19S
ORANGE*        SUNNY     81  57  44 CALM      30.21F
GORDONSVILLE*  FAIR      80  58  46 S8        30.19F
WARRENTON*     FAIR      81  60  48 S7        30.19S

$$

VAZ055>057-260000-
NORTH AND CENTRAL PIEDMONT

CITY           SKY/WX    TMP DP  RH WIND       PRES   REMARKS
FREDERICKSBRG* SUNNY     84  58  41 S9        30.19S
STAFFORD*      SUNNY     81  54  38 S10G17    30.24S

$$

NCZ024-NYZ072-PAZ021-071-VAZ022-071-260000-
OTHER REGIONAL OBSERVATIONS

CITY           SKY/WX    TMP DP  RH WIND       PRES   REMARKS
NEW YORK CITY  SUNNY     82  56  40 MISG      30.18R
PHILADELPHIA   PTSUNNY   83  57  41 SW18      30.19S
PITTSBURGH     PTSUNNY   81  59  47 SW12      30.11F
ROANOKE        MOSUNNY   79  56  45 S13       30.24S
RICHMOND       MOSUNNY   82  55  39 S8        30.22F
RALEIGH        MOSUNNY   81  53  37 S8        30.25F

$$

ANZ530>537-260000-
MARINE OBSERVATIONS

STATION/POSITION TIME  TEMP    WIND        PRES
                       AIR SEA DIR/SP/G
                 (UTC) (F)     (DEG/KT/KT) (MB)
THOMAS PT LIGHT  2300   72 67  170/ 24/ 27 1023.1F
BALT KEY BRIDGE  2200   75     140/ 18/ 20 1021.9F
LEWISETTA        2200   77 73              1023.5F
SOLOMONS ISLAND  2200      71                N/A
PINEY POINT      2200          170/ 14/ 17   N/A

$$



USA.gov is the U.S. government's official web portal to all federal, state and local government web resources and services.